Location: Devargunta
(16.7631°N, 80.9077°E)
Time: 16:05:14
(UTC+00:00)

Aurora 2 Rocket - Pass Details

Date: 19 January 2021
Orbit: 390 x 1740 km, 25.0° (Epoch: 26 February)

Event Time Altitude Azimuth Distance (km) Brightness Sun altitude
Exits shadow 22:44:54 32° 75° (ENE) 1,238 4.4 -33.8°
Drops below altitude 10° 22:48:15 10° 72° (ENE) 2,495 6.3 -33.1°
Sets 22:51:22 0° 71° (ENE) 3,687 7.3 -32.3°
